Location: Lake Crest
(37.6062°N, 88.9176°W)
Time: 16:21:45
(UTC+00:00)

YAOGAN 1 - Pass Details

Date: 15 December 2019
Orbit: 619 x 621 km, 98.0° (Epoch: 28 January)

Event Time Altitude Azimuth Distance (km) Brightness Sun altitude
Rises 01:08:13 0° 190° (S) 2,881 6.2 -28.9°
Reaches altitude 10° 01:10:36 10° 200° (SSW) 1,980 5.4 -29.4°
Maximum altitude 01:14:25 31° 263° (W) 1,100 4.3 -30.1°
Drops below altitude 10° 01:18:16 10° 326° (NW) 1,994 5.4 -30.9°
Sets 01:20:41 0° 337° (NNW) 2,904 6.2 -31.3°
